Flag for U.S.A. Weather past 2 weeks in Bloomington, Indiana, U.S.A.

Now
60 °F

Sunny.


Feels Like: 60 °F
Forecast: 44 / 67 °F
Wind: 5 mph from West

Location: Monroe County Airport

Current Time: Oct 25, 2014 at 8:18:48 PM

Latest Report: Oct 25, 2014 at 7:53 PM


Visibility: 10 mi

Pressure: 29.95 "Hg

Humidity: 72%

Dew point: 51 °F

Location of BloomingtonLocation

Historic Weather in Bloomington — Graph

°F

Bloomington temperature yesterday

Maximum temperature yesterday: 67 °F (at 3:53 PM)
Minimum temperature yesterday: 36 °F (at 5:53 AM)
Average temperature yesterday: 50 °F

Past Weeks' High & Low Weather Summary

 TemperatureHumidityPressure
High76 °F (Oct 25, 3:53 PM)100% (Oct 13, 12:03 AM)30.34 "Hg (Oct 13, 12:03 AM)
Low34 °F (Oct 22, 5:53 AM)40% (Oct 25, 4:53 PM)29.52 "Hg (Oct 14, 6:53 AM)
Average54 °F81%29.97 "Hg
* Reported Oct 10 6:53 PM — Oct 25 6:53 PM, Bloomington, Weather by CustomWeather, © 2014

Note: Actual official high and low records may vary slightly from our data, if they occured in-between our weather recording intervals... More about our weather records

Advertising

Bloomington weather history for previous 24 hours

 ConditionsComfort  
Time TempWeatherWind HumidityBarometerVisibility
6:53 PM
Oct 25
71 °FSunny.3 mph47%29.94 "Hg9 mi
5:53 PM76 °FSunny.10 mph40%29.94 "Hg9 mi
4:53 PM76 °FSunny.8 mph40%29.95 "Hg10 mi
3:53 PM76 °FSunny.7 mph43%29.95 "Hg10 mi
2:53 PM75 °FSunny.8 mph47%29.95 "Hg10 mi
1:53 PM72 °FSunny.12 mph57%29.96 "Hg6 mi
12:53 PM68 °FSunny.6 mph68%29.98 "Hg10 mi
11:53 AM64 °FScattered clouds.8 mph78%29.98 "Hg10 mi
10:53 AM61 °FOvercast.5 mph81%30.00 "Hg7 mi
10:02 AM59 °FOvercast.7 mph84%30.01 "Hg6 mi
9:53 AM59 °FOvercast.7 mph84%30.00 "Hg6 mi
8:53 AM57 °FFog.5 mph90%29.99 "Hg4 mi
8:04 AM57 °FFog.6 mph87%29.99 "Hg5 mi
7:53 AM57 °FFog.6 mph87%29.98 "Hg6 mi
6:53 AM56 °FPassing clouds.6 mph87%29.97 "Hg10 mi
5:53 AM56 °FPassing clouds.6 mph87%29.97 "Hg10 mi
4:53 AM55 °FMostly cloudy.6 mph90%29.98 "Hg9 mi
3:53 AM52 °FClear.5 mph93%29.99 "Hg7 mi
2:53 AM54 °FPassing clouds.7 mph90%30.00 "Hg7 mi
1:53 AM49 °FPassing clouds.No wind93%30.02 "Hg9 mi
12:53 AM50 °FPassing clouds.No wind93%30.03 "Hg10 mi
11:53 PM
Oct 24
53 °FClear.5 mph89%30.03 "Hg10 mi
10:53 PM48 °FClear.No wind93%30.04 "Hg10 mi
9:53 PM47 °FClear.No wind93%30.04 "Hg10 mi
8:53 PM51 °FClear.No wind89%30.03 "Hg10 mi
Weather by CustomWeather, © 2014

See weather overviewHow to use our weather pages